Wind_Speed
84 83 82 82 82 81 80 78 77 77 76 77 76 74 70 68 66 62 59 60 58 55 55 56 55 55 55 54 54 54 52 52 53 55 56 55 55 55 56 58 60 61 62 62 63 62 60 59 59 59 59 59 59 59 58 57 57 56 56 56 56 56 55 53 50 49 51 53 53 53 55 56 56 58 60 59 57 58 59 59 61 64 66 65 64 63 60
85 84 83 84 84 83 82 80 80 79 78 78 78 76 73 70 68 64 62 63 61 58 57 56 55 56 56 55 55 54 53 54 56 57 58 57 57 57 59 61 62 63 64 65 65 64 62 61 61 60 60 61 62 61 61 61 60 59 59 59 58 58 58 56 54 53 53 54 55 55 56 58 59 61 61 60 62 64 64 65 66 68 68 67 65 63 62
86 86 85 84 84 84 82 81 80 80 80 79 79 77 74 72 69 66 66 65 61 59 58 57 57 57 56 56 55 55 55 56 59 60 60 59 59 59 61 63 65 66 66 67 67 67 65 64 63 62 62 63 64 64 64 63 63 62 62 61 61 61 60 59 57 56 54 52 51 50 50 53 57 61 63 65 68 68 68 69 68 66 65 64 62 62 64
85 84 85 84 84 85 84 82 81 81 80 79 78 76 75 73 71 68 67 65 61 58 59 59 59 58 58 57 57 57 57 59 61 62 61 60 60 62 64 66 67 68 68 68 69 69 68 67 65 64 65 65 66 67 66 66 65 64 63 62 62 61 61 59 58 56 53 49 45 44 46 48 54 60 63 64 65 65 65 65 64 63 61 61 62 65 67
83 82 84 84 86 88 87 83 81 80 80 79 78 77 75 74 72 70 67 63 60 60 61 61 60 60 59 60 60 60 61 62 63 63 63 62 63 65 67 68 68 70 70 70 71 71 71 70 68 67 67 68 68 68 67 67 66 65 64 63 62 62 61 60 58 55 51 45 41 44 46 46 51 56 57 58 62 63 61 60 61 62 63 64 67 70 71
83 82 84 85 89 91 87 81 79 80 80 79 79 78 76 74 72 70 66 63 62 62 62 62 62 62 62 62 63 63 64 65 66 65 65 65 66 68 69 69 70 71 72 72 73 73 73 72 70 69 68 68 68 67 66 66 65 64 63 62 62 62 61 59 57 54 49 41 38 44 50 50 54 56 54 56 59 58 56 58 62 64 66 68 71 74 75
83 83 85 87 90 89 84 80 80 81 81 81 80 79 77 75 73 70 67 65 64 63 63 63 63 64 65 64 65 66 67 68 68 68 68 68 69 70 70 70 71 71 72 73 74 74 74 73 71 69 68 66 65 64 64 64 63 63 62 62 62 61 60 59 57 54 48 39 37 45 54 57 58 58 56 54 51 49 53 60 65 66 67 69 73 76 79
85 85 85 87 88 85 82 81 83 84 83 82 81 80 77 74 72 70 68 66 64 64 63 64 64 65 66 65 66 68 69 69 69 68 69 69 70 70 70 70 70 70 71 72 73 73 73 73 71 68 66 64 63 62 62 62 62 62 62 62 62 62 62 60 58 55 48 40 40 48 55 59 60 60 59 54 49 50 55 61 64 67 69 71 74 77 79
87 86 86 87 86 84 82 83 84 85 84 83 82 80 77 75 73 71 69 66 65 64 63 63 64 65 65 65 66 68 69 69 69 68 68 69 70 70 69 69 69 68 69 70 71 72 72 72 70 68 66 64 63 63 62 62 62 63 63 64 64 64 63 61 60 57 50 44 46 52 55 59 61 60 59 59 58 59 60 62 64 68 71 73 75 78 79
88 87 86 87 86 84 82 83 84 82 82 83 81 79 76 75 73 71 68 66 64 63 63 63 63 64 64 65 67 69 69 69 68 68 68 69 70 69 68 68 67 67 67 68 69 70 71 71 70 69 67 66 65 65 64 64 64 65 65 66 66 65 65 63 62 60 54 49 51 54 57 61 63 62 61 62 64 66 67 68 70 73 75 77 78 79 81
89 88 87 87 87 84 83 83 83 81 81 81 79 77 76 75 72 70 68 67 66 65 65 66 66 67 67 68 70 71 70 69 69 68 69 69 69 68 67 66 65 66 67 68 68 69 70 70 70 69 68 67 66 67 67 66 67 67 67 67 67 66 65 65 64 62 59 55 56 58 60 64 68 69 70 70 70 72 73 74 76 78 79 80 82 84 85
90 88 87 87 87 86 85 84 83 81 81 80 77 76 76 73 70 69 69 68 67 67 67 67 68 69 70 70 71 70 70 69 69 68 68 67 67 67 66 65 66 67 68 68 68 69 69 70 71 70 69 68 69 68 68 68 68 68 69 69 68 67 66 66 66 65 63 61 61 61 63 65 69 72 74 75 76 76 77 78 79 81 82 84 86 88 89
89 89 88 87 87 87 85 85 83 81 80 78 75 74 73 71 69 69 69 68 67 66 67 68 68 70 71 70 69 70 70 70 69 68 67 67 67 67 65 66 67 68 69 70 70 70 71 72 72 71 71 72 72 71 70 69 69 69 69 69 69 67 67 66 66 66 65 64 62 62 62 64 68 72 74 77 78 78 77 78 80 81 83 84 86 87 89
86 87 88 87 87 88 87 85 84 81 78 76 74 73 72 71 70 70 69 68 67 67 68 69 69 71 70 68 69 71 71 70 70 69 68 67 67 67 66 67 68 69 70 72 73 73 73 73 73 73 73 73 73 72 71 71 70 69 69 70 69 68 67 66 65 65 64 63 62 62 64 65 68 70 72 73 74 74 75 77 77 77 77 79 81 83 85
81 82 86 88 87 86 87 85 83 79 76 74 74 73 74 74 73 71 70 69 68 69 70 70 71 71 70 70 71 72 72 72 73 72 70 68 67 68 69 69 71 72 73 74 76 76 76 75 74 73 73 72 72 73 73 72 71 69 69 68 67 65 65 64 64 64 64 63 63 64 64 65 66 67 66 66 67 68 68 67 67 69 72 74 75 76 77
77 77 82 87 87 86 86 84 82 80 78 75 74 75 76 77 75 73 72 71 70 70 70 71 72 73 73 74 74 73 73 74 74 73 72 71 70 70 71 72 73 74 74 75 76 77 77 76 75 74 74 74 75 74 74 73 71 69 67 65 64 64 65 64 63 63 62 63 63 63 64 65 65 65 64 64 65 63 59 59 65 72 75 74 72 72 72
70 71 74 79 82 84 85 84 81 79 78 76 77 77 77 77 77 75 74 73 73 72 72 73 75 75 75 75 74 74 75 75 75 74 74 74 73 73 73 74 75 76 76 76 78 79 79 78 77 76 76 77 77 76 75 73 71 68 67 66 66 66 65 64 63 63 63 63 64 64 65 66 67 67 68 69 68 64 62 66 74 77 75 73 73 72 72
63 66 70 73 75 76 79 79 79 80 80 78 79 80 78 77 77 76 75 75 75 75 75 76 77 76 75 75 76 76 77 77 76 76 75 75 75 75 75 76 77 77 78 78 79 80 80 79 79 78 78 78 78 77 75 72 69 68 68 69 69 68 67 65 65 64 64 64 65 66 67 68 70 71 73 75 76 74 74 78 80 77 74 73 73 72 74
61 63 66 70 72 73 72 69 68 70 74 76 79 80 80 80 78 77 76 77 76 77 77 78 78 76 75 76 78 79 79 79 78 77 76 76 77 77 77 78 78 78 79 80 80 80 80 79 80 80 80 80 78 76 73 71 70 71 71 71 71 69 67 66 66 66 66 67 67 69 70 72 74 75 77 80 80 80 80 80 78 74 71 71 71 74 78
61 60 61 64 69 72 72 70 65 61 61 65 71 74 76 78 78 77 78 78 77 78 78 78 78 76 74 75 78 80 80 79 78 76 75 75 75 75 75 74 75 76 78 79 80 80 80 80 81 81 80 79 77 75 74 73 73 74 73 73 71 70 68 67 68 68 69 70 72 73 75 78 79 80 81 82 80 79 80 78 74 71 70 72 77 82 84
62 56 53 56 62 68 71 70 67 65 65 65 67 70 72 73 74 75 77 78 78 79 79 79 79 78 77 78 81 82 81 80 78 76 75 74 74 73 73 73 73 75 76 78 78 79 80 81 80 79 77 76 76 75 74 74 74 73 73 72 70 69 69 69 70 72 74 75 77 78 80 83 84 85 85 85 83 83 82 79 77 77 79 83 86 87 86
64 57 52 52 57 62 67 68 63 62 66 68 68 70 73 74 74 75 76 77 78 79 80 80 80 80 80 81 82 82 82 81 80 78 77 76 76 77 76 76 76 76 77 78 78 79 80 79 78 76 75 74 75 75 74 73 73 73 73 72 71 71 72 73 74 75 77 78 80 82 84 86 87 88 89 90 91 90 88 86 86 86 88 89 88 87 88
70 65 60 59 60 59 62 66 64 59 60 63 64 66 70 72 74 75 75 76 77 78 79 79 80 80 80 80 80 79 78 78 77 77 77 77 78 78 78 77 77 77 78 78 79 79 79 77 76 75 74 73 73 74 74 74 73 74 74 74 73 72 72 74 76 78 80 82 83 84 86 87 88 90 93 95 95 93 90 88 87 87 88 89 89 90 91
74 72 66 63 64 63 61 63 64 63 62 63 64 65 67 70 72 73 74 75 76 77 77 77 77 77 78 79 79 78 78 77 77 78 78 77 77 77 77 77 77 77 77 78 78 78 77 76 75 74 73 73 73 74 75 75 76 76 76 75 74 72 70 73 77 79 81 82 83 85 87 89 91 93 93 91 86 83 81 82 84 87 90 92 93 93 92
67 68 68 67 67 68 67 65 65 66 67 67 67 67 68 69 71 72 73 74 74 73 73 74 74 74 76 77 77 78 78 78 78 78 77 77 76 76 76 76 76 77 76 76 77 76 76 75 74 73 74 76 77 76 76 77 78 78 78 77 76 76 76 78 80 82 83 84 86 88 90 92 93 93 90 85 81 81 83 87 92 94 95 95 94 93 90
57 54 59 67 69 69 69 68 67 66 65 66 68 71 72 71 71 71 72 72 72 70 70 71 71 72 73 75 76 77 77 77 77 76 76 76 76 76 75 76 76 75 75 75 75 76 75 75 74 76 78 80 79 78 78 78 79 79 79 78 79 80 81 83 84 85 86 87 89 91 93 94 96 96 94 92 92 93 95 96 97 96 95 94 93 90 87
59 52 50 57 65 69 69 66 63 60 58 57 60 67 72 72 70 69 68 69 70 70 70 72 73 73 74 75 75 75 76 75 75 75 75 75 75 75 75 75 75 75 75 75 76 77 77 77 78 80 81 81 80 79 79 80 79 79 79 80 81 83 84 86 87 89 90 91 92 94 97 99 100 100 99 99 98 98 97 96 95 94 93 91 88 85 83
59 57 52 51 56 63 67 66 62 60 58 58 58 62 67 69 69 68 67 65 66 67 69 70 72 73 74 74 73 74 74 73 74 74 75 76 75 75 75 75 75 76 77 77 78 79 80 81 82 82 82 81 81 80 80 80 79 79 81 82 84 86 88 89 91 93 94 95 96 98 100 101 102 102 100 99 97 96 95 93 92 90 88 85 82 81 81
57 59 59 57 56 59 64 67 68 65 63 63 63 63 65 67 71 72 70 66 64 64 65 67 68 70 72 73 73 73 73 73 74 75 76 76 76 75 75 75 76 77 78 79 80 81 82 83 83 83 82 82 82 81 81 82 83 83 85 87 88 90 91 92 93 94 96 98 100 102 102 101 99 97 95 94 93 93 92 90 88 86 83 81 80 80 81
63 63 65 65 63 62 64 68 72 70 67 65 64 64 64 67 71 73 69 65 64 64 65 66 67 69 70 71 72 73 73 74 75 76 77 77 77 77 77 77 77 78 79 80 81 83 83 84 84 84 84 84 84 83 84 85 86 87 87 88 90 91 93 94 96 97 99 101 102 101 99 96 93 91 90 90 91 90 88 85 83 82 80 80 81 82 82
69 69 69 69 68 66 67 72 74 70 68 67 65 63 62 64 67 69 68 68 69 70 70 71 71 72 72 73 73 74 75 76 76 77 78 79 79 78 78 78 78 78 79 80 81 83 84 85 86 86 87 87 87 86 86 86 87 89 90 91 94 96 98 99 100 100 100 100 99 96 94 92 91 89 89 89 88 86 83 82 81 81 81 82 83 83 84
71 71 71 71 70 67 68 73 75 71 68 67 65 62 59 59 59 62 65 67 70 71 72 74 74 74 74 74 75 75 75 76 77 78 79 80 80 79 79 78 78 79 79 81 82 83 85 87 88 89 89 89 88 88 88 89 91 93 94 96 97 99 100 100 99 98 96 93 91 90 89 89 88 88 87 86 84 82 81 81 82 83 84 84 85 86 88
71 72 72 71 70 67 67 70 74 73 70 68 66 64 61 59 59 60 63 65 67 69 71 72 73 74 75 75 75 75 76 76 77 78 78 79 79 79 79 79 79 80 81 82 83 84 85 86 87 88 88 89 89 90 91 93 94 95 96 97 97 98 98 97 94 92 89 86 85 85 87 87 87 86 85 83 82 83 84 85 86 87 87 88 88 89 89
76 74 72 70 69 69 68 69 72 74 72 71 71 70 67 65 64 65 66 66 67 68 69 70 72 73 74 74 74 75 75 76 77 77 77 77 77 78 78 79 80 81 82 82 83 83 84 84 85 87 88 89 91 92 93 94 94 95 95 95 94 94 92 89 87 84 82 81 82 84 85 86 85 85 85 87 88 90 90 90 90 91 91 91 90 89 88
76 74 71 68 66 67 68 69 72 74 74 75 75 74 72 70 69 69 69 69 69 69 69 70 71 71 72 73 73 74 74 75 75 75 75 75 76 76 76 77 78 79 80 81 82 82 82 83 84 86 87 88 89 91 92 92 92 91 90 87 86 85 83 82 82 81 80 78 80 84 87 89 90 90 92 94 96 96 95 95 94 95 95 94 92 91 89
68 67 66 65 64 63 64 65 67 68 69 69 70 71 71 71 71 72 71 70 70 70 70 70 70 71 71 71 72 72 72 72 73 73 73 74 74 74 75 75 76 77 78 80 81 82 82 82 83 85 86 87 87 87 87 86 84 82 79 76 76 77 78 79 82 83 82 80 82 87 92 95 96 96 96 97 98 99 99 98 97 97 96 94 93 91 89
67 65 64 63 62 61 61 62 64 65 65 66 67 68 69 70 70 69 68 68 68 68 68 68 69 69 69 69 70 70 70 71 71 72 72 73 73 74 74 74 75 76 77 78 80 81 81 81 81 81 81 81 80 79 78 77 75 73 72 71 73 75 77 79 82 84 85 86 87 88 91 95 97 97 96 97 98 99 99 98 97 96 95 94 92 91 89
71 69 68 66 64 63 63 64 65 66 66 66 66 66 65 65 65 64 64 65 65 65 65 66 66 67 67 68 68 69 69 70 70 71 71 72 72 72 72 72 73 73 73 74 74 75 75 74 74 73 73 72 72 72 72 73 74 74 73 73 75 78 80 82 84 86 88 89 90 90 92 94 96 96 96 97 97 97 97 96 95 94 92 91 90 89 89
73 71 70 69 68 67 66 65 65 65 64 63 61 61 60 60 60 61 61 61 62 63 63 63 64 65 66 67 67 68 68 69 69 69 69 69 69 68 68 67 67 67 67 67 67 67 68 68 69 69 70 70 72 73 73 74 77 79 78 78 80 83 85 86 88 90 91 92 92 92 94 95 96 96 96 96 95 95 94 93 91 90 89 88 88 89 89
66 66 66 65 64 63 62 61 61 60 59 58 57 57 57 58 58 59 59 60 61 61 61 61 62 63 63 64 64 64 64 64 64 64 64 63 63 63 62 63 63 63 64 64 65 66 68 69 71 72 72 73 75 77 77 79 81 83 84 84 85 87 88 89 91 92 93 93 93 93 94 95 95 94 94 93 92 91 89 87 86 86 86 86 88 89 88
58 59 59 59 59 59 58 58 57 57 56 56 56 57 57 58 59 59 59 60 60 60 60 60 60 60 60 60 60 60 60 60 60 61 61 61 61 61 61 62 63 64 65 67 68 69 71 73 75 76 77 78 79 81 82 83 85 86 87 88 89 89 90 91 91 91 92 92 92 92 92 92 91 90 89 87 86 84 83 83 83 85 86 86 87 87 84
58 58 58 58 58 58 58 57 56 56 56 57 57 58 59 59 59 59 59 59 59 59 59 59 59 59 59 59 59 60 60 60 61 61 62 62 63 63 64 65 67 68 69 70 72 73 75 77 78 79 81 82 83 84 85 86 87 88 88 88 88 88 87 87 86 86 86 87 87 87 87 86 85 84 82 81 80 80 81 82 84 85 85 84 82 80 76
61 61 61 60 60 59 58 57 57 57 57 58 58 59 59 59 59 59 59 58 58 58 59 59 59 59 59 59 60 60 61 62 63 64 64 65 66 67 68 69 71 72 74 75 76 77 78 80 81 82 83 84 85 85 86 86 86 85 84 83 82 80 79 78 77 76 76 77 77 78 77 77 77 76 76 76 77 78 79 80 80 79 78 76 74 71 68
61 61 61 60 59 58 57 57 56 57 57 58 58 59 59 59 59 60 60 60 59 60 60 60 60 60 60 61 61 62 63 64 65 66 67 68 69 71 72 73 75 76 77 78 78 79 80 81 82 82 83 83 82 82 81 80 79 77 76 74 72 70 68 67 66 66 66 66 67 68 68 69 69 70 71 72 72 73 72 72 71 70 68 67 66 64 63
61 61 60 59 58 57 57 57 57 58 59 60 60 60 60 61 61 62 62 62 62 61 62 62 62 62 63 63 64 65 66 67 68 69 70 71 72 74 75 76 77 78 78 79 80 80 81 81 81 80 79 78 76 75 74 72 70 68 66 64 62 61 59 59 58 58 57 57 58 59 60 61 62 62 63 63 63 63 63 62 62 62 62 62 61 60 58
61 61 60 59 59 59 59 59 60 61 61 62 63 63 63 63 64 64 64 64 64 64 64 64 64 65 65 66 66 67 68 69 70 72 73 74 75 76 76 77 77 78 79 79 80 80 79 78 77 75 74 72 70 68 66 63 61 59 57 55 54 53 53 53 52 51 51 50 51 51 52 53 54 55 55 55 55 56 57 57 58 58 58 58 57 56 54
62 62 62 61 61 61 61 62 62 63 64 64 65 65 65 65 66 66 66 66 66 66 66 66 67 67 67 68 68 69 70 72 73 74 75 75 76 76 77 77 78 78 79 78 77 76 75 73 71 69 67 65 62 60 59 57 54 52 50 49 48 48 48 47 47 46 46 46 46 47 47 48 49 50 51 52 52 53 54 54 54 54 54 53 53 53 52
60 61 61 62 62 62 63 63 64 65 66 66 66 67 67 67 67 67 67 67 67 67 67 67 68 68 69 69 70 71 73 74 75 75 76 76 76 77 78 78 78 77 76 75 73 71 69 66 63 61 59 57 55 53 52 52 50 49 47 46 45 45 45 44 43 43 43 43 43 43 45 46 47 48 49 50 50 50 50 50 50 50 51 51 51 51 50
61 61 62 62 63 64 64 65 66 67 67 67 67 67 67 67 67 68 68 68 68 68 68 68 69 70 71 72 73 74 75 75 76 76 77 77 77 78 78 77 76 74 72 69 67 64 61 58 55 53 51 50 49 48 47 47 47 46 46 45 45 44 43 43 42 42 42 42 42 43 44 45 46 47 47 48 48 48 48 48 48 48 48 48 48 48 47
61 62 63 63 64 64 65 66 67 67 67 67 66 66 66 67 68 68 68 68 68 69 70 70 71 72 73 74 74 75 75 76 77 78 78 78 77 76 75 73 71 69 66 62 59 55 52 50 48 46 45 44 44 43 43 43 43 43 43 43 43 42 42 42 42 41 42 42 42 42 43 44 45 45 46 46 47 48 48 48 47 47 46 46 45 45 45
61 62 63 64 65 65 66 66 67 67 67 67 67 67 67 68 69 69 69 69 70 70 71 72 72 73 74 75 76 76 78 78 78 78 77 76 74 72 70 68 65 62 58 54 51 48 46 45 44 42 41 41 40 40 40 40 40 40 40 40 40 40 41 41 41 41 41 41 42 42 42 43 44 44 45 45 45 45 46 46 46 46 45 44 44 43 43
60 61 62 63 64 64 65 66 66 66 66 66 67 67 68 68 69 69 69 70 71 71 72 73 73 74 75 76 78 79 79 78 77 75 73 72 70 67 64 61 57 54 51 48 46 45 44 43 42 41 41 40 40 40 40 40 40 40 40 40 40 40 41 41 41 41 41 41 41 42 42 42 42 42 43 43 43 43 43 44 45 45 45 44 43 43 43
Wind_Direction
231 232 233 235 236 237 238 238 239 239 241 242 244 245 245 245 245 246 246 246 246 245 246 247 249 252 254 256 258 260 262 264 265 265 266 267 268 269 271 273 274 275 275 276 277 279 281 283 285 286 288 289 290 291 292 293 294 295 296 298 299 299 300 301 302 301 299 299 302 305 304 302 298 296 296 298 302 303 299 297 299 301 302 304 306 307 309
230 231 232 234 236 238 238 239 239 240 241 242 244 245 245 245 246 245 245 246 247 246 248 249 251 253 255 257 259 261 263 264 265 265 266 267 268 270 271 272 273 274 275 276 277 279 281 282 284 286 287 288 289 290 291 292 293 295 296 297 297 297 298 299 300 300 300 303 307 308 306 304 299 297 297 299 301 303 301 300 300 300 301 303 304 304 305
229 230 231 233 235 237 238 239 240 241 242 243 244 245 246 247 247 246 246 247 248 249 251 253 254 255 256 258 259 260 262 262 263 264 265 267 268 270 271 271 272 273 275 276 278 280 281 282 283 285 286 287 288 289 290 291 292 293 294 295 295 295 297 297 298 300 301 305 310 307 301 297 293 294 297 298 299 301 302 301 300 301 302 304 303 302 303
228 230 232 233 234 236 237 238 240 242 243 245 246 247 248 248 248 248 248 249 251 252 253 254 255 256 257 258 259 260 261 261 262 263 265 267 268 269 269 270 271 272 274 275 277 279 280 282 283 284 285 285 286 287 289 289 290 291 292 293 293 294 295 295 297 299 301 306 308 299 292 288 287 291 297 298 300 304 304 302 301 301 302 303 303 302 301
226 229 232 233 234 235 235 236 238 241 243 245 246 247 248 249 249 250 250 252 252 253 254 255 257 258 259 260 261 261 262 262 263 264 265 266 266 267 268 269 270 272 273 275 276 278 280 281 282 283 283 284 285 286 287 288 289 290 291 292 292 292 293 294 296 297 299 304 303 292 286 282 282 288 293 294 298 303 303 302 302 302 301 299 298 298 298
225 227 230 232 233 235 235 235 237 239 241 243 245 246 247 248 250 251 251 252 252 253 254 256 258 259 260 260 261 262 262 263 263 264 265 265 265 265 266 268 270 272 274 275 276 278 279 280 281 281 282 283 284 285 287 288 289 290 291 291 291 292 292 293 294 293 295 301 299 287 281 279 279 283 286 288 294 298 299 301 302 300 298 296 294 294 295
225 226 228 231 233 235 235 235 236 237 239 241 242 244 245 247 248 250 250 251 251 253 254 256 257 258 259 260 261 261 262 262 263 264 264 264 265 265 266 268 269 271 273 275 276 277 278 279 279 280 281 282 283 285 286 287 288 289 290 291 291 292 292 292 291 290 292 296 291 280 277 277 277 277 278 283 288 289 290 294 294 292 293 292 291 291 292
224 225 228 231 233 235 235 235 236 237 238 239 241 242 243 245 246 248 248 249 250 252 253 254 256 257 258 259 260 260 261 262 263 263 264 265 265 266 267 268 269 270 272 273 275 276 277 278 279 280 281 282 283 284 285 287 288 289 291 291 292 292 291 290 290 289 290 290 280 271 271 273 274 274 276 278 279 277 280 285 286 288 289 289 289 290 291
224 225 227 229 232 233 234 235 236 237 238 240 241 242 243 244 245 246 247 248 249 250 252 253 254 256 257 258 259 260 260 261 262 262 263 264 265 265 266 267 268 269 270 271 273 275 276 278 280 281 282 284 285 286 287 288 289 290 291 291 291 290 289 288 289 289 288 285 277 270 268 269 272 274 276 276 274 275 278 280 283 285 286 287 288 289 290
225 225 226 228 230 231 233 235 236 238 239 240 241 243 244 244 245 246 247 248 248 249 249 250 252 253 254 255 255 256 257 258 259 260 261 262 263 264 265 266 267 269 270 271 272 274 276 278 280 281 283 284 286 287 287 288 289 289 289 288 288 287 287 287 287 287 284 280 275 271 268 268 271 274 276 277 276 276 278 279 280 282 283 285 287 288 289
225 226 226 228 230 230 232 234 235 237 239 240 242 243 244 244 245 246 247 247 247 248 248 248 249 249 250 251 252 254 255 256 257 258 259 261 262 264 265 266 267 268 269 271 272 274 276 278 279 280 282 283 285 285 286 286 287 287 286 286 286 286 286 286 285 284 282 279 275 272 269 267 268 271 275 278 279 279 279 279 280 281 282 283 285 287 288
226 226 227 228 230 230 232 233 235 236 237 239 241 242 244 245 246 246 247 248 248 249 249 250 250 251 252 253 254 255 256 256 257 257 259 260 262 263 265 266 267 267 269 270 272 273 275 276 278 279 281 282 282 282 283 283 284 284 284 284 284 284 285 284 284 283 282 280 277 275 271 268 267 270 275 278 280 281 280 280 280 281 282 284 286 287 288
227 227 227 228 230 230 231 233 234 235 236 238 240 242 244 245 245 246 247 248 249 250 250 251 251 252 253 254 256 256 256 257 257 258 259 260 261 263 264 265 266 268 269 271 272 273 274 275 276 278 279 280 280 280 281 281 282 283 283 283 284 284 283 283 283 283 283 281 279 276 273 270 270 272 275 279 281 282 282 282 282 283 284 286 288 288 289
228 229 228 229 230 231 232 233 234 234 236 238 240 242 243 244 244 245 246 247 248 249 250 251 251 253 254 255 256 256 257 258 258 259 259 261 263 265 266 266 267 269 270 271 272 273 274 275 276 278 279 280 280 280 280 281 282 283 284 284 284 284 284 284 283 283 282 281 279 277 275 274 274 275 278 280 282 283 284 284 284 285 288 289 289 289 289
228 230 230 229 231 233 233 234 234 234 235 237 239 241 242 243 243 243 244 246 247 248 250 251 252 253 254 254 255 256 257 258 259 260 261 262 263 265 266 267 268 270 271 273 274 275 276 277 278 279 280 281 281 281 282 283 284 285 286 286 285 285 286 285 285 284 283 282 280 277 277 278 280 282 284 287 289 290 289 287 287 290 293 293 292 291 291
226 230 231 231 231 233 234 235 235 235 235 236 237 239 241 242 243 243 243 245 246 247 249 251 252 253 253 254 255 257 259 260 262 263 264 264 265 265 267 269 270 271 273 274 276 277 278 279 280 281 281 281 282 283 284 285 286 287 286 286 286 287 288 286 285 284 283 283 281 280 282 286 289 291 293 295 297 296 291 288 291 295 297 296 295 294 293
225 228 231 231 231 233 235 236 236 237 236 237 237 238 240 242 244 244 244 245 246 246 248 250 251 253 254 256 258 259 260 262 263 265 266 267 268 269 271 272 273 274 275 276 277 278 279 280 281 282 282 283 284 285 286 287 287 287 287 287 288 289 288 286 285 285 286 286 286 288 291 294 297 299 299 299 299 296 290 289 294 297 297 296 295 294 293
223 227 230 230 230 232 234 237 239 239 238 238 238 239 239 241 243 245 246 246 247 248 248 250 252 253 255 257 259 260 261 262 264 265 267 269 271 272 273 274 274 275 276 276 277 278 279 281 282 283 283 285 286 287 287 288 288 287 287 287 288 288 288 288 289 291 291 292 294 295 296 297 299 300 301 300 299 297 294 294 296 297 296 294 292 291 290
220 226 229 230 231 231 231 233 237 239 239 239 240 239 239 240 242 244 246 247 248 249 250 252 253 255 257 258 259 259 260 261 263 265 267 268 270 271 271 272 273 274 275 276 277 278 280 281 282 284 285 286 287 287 287 287 288 288 288 289 290 292 293 294 296 296 296 297 297 296 296 297 298 299 300 301 299 298 297 297 296 296 294 292 291 290 292
217 223 228 231 231 231 230 229 230 232 234 236 239 239 239 240 240 242 245 246 248 249 251 252 254 255 256 258 258 259 260 262 263 265 267 268 269 270 271 272 273 274 276 277 279 280 281 282 284 285 286 287 287 288 289 290 291 293 294 296 296 297 297 297 297 296 296 295 295 295 296 296 297 298 299 300 299 299 300 299 298 297 296 295 295 296 298
213 217 225 231 232 232 231 230 230 231 232 234 238 240 241 241 242 243 245 247 248 249 251 252 254 254 254 256 258 260 261 263 265 265 266 267 268 270 271 272 273 274 276 277 279 280 281 283 284 285 286 287 288 290 291 293 294 295 297 297 297 295 295 295 294 293 293 294 294 294 295 295 295 296 297 298 299 299 300 299 298 298 298 299 299 300 300
210 211 217 224 229 232 232 229 229 232 235 236 239 241 243 244 245 245 246 248 249 251 252 253 254 255 255 256 258 260 261 263 264 264 264 265 266 268 270 271 272 274 275 276 277 279 280 282 283 285 286 287 289 290 292 293 293 294 295 295 293 292 292 291 291 291 291 291 291 291 292 292 293 295 297 299 300 300 300 299 297 297 298 299 299 299 300
211 211 213 218 223 228 231 229 227 230 235 237 238 241 243 244 246 246 247 248 249 250 251 253 254 255 255 256 258 260 262 263 264 265 266 267 268 270 271 273 274 274 275 276 278 279 281 282 283 284 285 286 288 289 290 290 290 291 291 291 290 289 288 287 286 287 287 288 289 290 291 293 294 296 298 299 299 299 298 297 297 297 298 299 299 300 302
218 217 217 219 223 227 231 232 231 232 235 238 240 242 243 245 246 247 248 249 250 251 252 253 254 255 256 257 259 260 262 263 265 266 268 269 270 271 273 274 274 275 276 277 278 279 281 282 282 283 284 285 286 287 287 287 287 288 288 288 287 286 285 284 286 287 288 290 291 292 293 294 296 297 299 299 298 297 297 297 297 298 299 300 301 302 304
226 227 226 226 228 232 234 236 236 237 241 244 246 247 247 247 247 248 248 249 250 251 252 253 254 255 256 257 259 260 261 263 265 267 269 270 271 271 273 273 274 275 276 277 278 279 280 280 280 281 282 284 285 285 285 285 286 287 288 288 288 287 287 288 289 291 291 292 292 292 293 294 296 297 298 297 297 297 297 298 299 300 300 301 302 303 305
222 227 232 233 233 235 237 239 240 243 248 251 252 251 250 250 250 251 251 251 250 251 251 252 252 254 256 258 260 262 263 265 266 267 269 270 271 272 273 273 274 275 276 276 276 277 278 277 277 278 280 282 284 284 285 286 286 287 288 288 289 289 289 290 290 291 291 291 292 292 293 294 295 296 296 295 295 295 296 297 299 300 300 301 303 304 304
218 219 226 231 233 234 235 237 240 243 245 247 248 248 249 249 251 252 252 251 251 251 252 253 253 255 257 259 261 263 265 266 268 268 269 270 271 272 273 273 274 274 274 274 274 274 274 274 275 277 280 282 283 284 285 285 286 287 288 288 289 289 290 290 291 291 292 292 293 294 294 295 296 296 295 295 295 295 296 297 298 299 300 301 303 303 303
217 217 219 225 231 233 232 231 232 233 233 234 237 243 245 247 248 249 249 250 251 253 255 256 257 257 259 260 262 264 266 267 268 269 270 270 271 272 272 273 273 273 273 273 274 274 274 275 277 279 281 282 283 285 286 287 289 289 290 290 290 290 290 290 291 291 292 293 293 294 295 295 295 295 294 294 294 294 295 296 297 299 300 302 303 303 302
211 213 214 219 227 230 228 225 225 226 228 231 236 241 244 244 245 246 247 249 251 253 255 257 258 258 259 261 263 265 266 267 268 269 270 271 272 273 273 273 273 273 273 274 275 276 277 278 280 281 283 284 286 287 288 289 289 289 288 288 288 288 288 288 289 290 291 292 293 293 293 293 293 293 293 293 293 294 295 297 298 299 300 301 302 302 301
211 214 215 218 223 227 225 221 220 223 227 231 236 240 243 243 243 244 246 247 250 252 255 257 258 259 261 262 263 264 266 267 268 269 270 271 272 273 273 273 273 273 273 274 275 277 278 280 281 282 283 284 284 285 285 286 286 286 286 287 287 288 288 289 289 290 291 291 291 291 291 291 291 292 292 293 294 295 297 298 299 300 300 301 301 301 301
211 215 217 219 223 225 223 219 218 220 226 230 233 236 240 242 243 243 245 247 250 253 255 257 258 260 261 261 262 263 265 266 268 269 271 272 273 273 273 273 273 273 273 274 275 276 277 279 280 280 281 282 283 284 285 286 286 287 287 288 288 288 288 289 289 290 290 291 291 291 291 291 292 292 292 293 295 296 297 298 299 300 300 300 301 301 301
214 216 218 221 223 224 222 219 219 221 225 229 231 234 237 240 243 246 249 251 253 255 257 258 259 260 261 262 263 264 266 267 268 270 271 272 272 273 273 273 272 272 272 273 273 274 275 276 277 279 280 282 283 284 285 285 285 285 286 286 286 286 287 288 289 290 290 291 291 291 291 291 292 292 292 293 294 295 296 297 299 299 299 300 300 300 301
217 218 220 223 225 224 223 221 222 225 228 231 233 236 238 242 248 253 255 257 258 258 259 259 260 260 262 263 264 265 266 267 268 269 270 270 271 272 272 272 272 273 273 273 273 274 274 275 277 279 280 281 282 282 282 282 283 283 284 285 286 287 288 289 289 290 289 289 290 290 290 290 290 291 292 293 294 295 296 297 298 299 299 299 300 300 301
216 219 221 223 226 227 226 224 224 227 230 234 237 240 243 247 252 256 258 259 260 260 260 261 261 262 263 264 265 265 266 267 268 268 269 269 270 270 271 271 271 272 272 272 273 273 274 276 277 278 278 279 280 280 281 282 283 284 285 286 287 287 288 288 289 288 288 289 289 289 289 289 291 292 294 295 296 296 297 298 299 299 300 300 301 302 302
217 220 222 225 227 229 229 229 229 230 234 238 241 244 246 249 253 257 259 260 260 260 261 261 262 262 263 264 264 265 265 266 267 268 268 269 269 269 270 270 271 271 272 272 273 274 275 276 277 277 278 279 280 280 282 283 284 284 285 287 287 288 288 288 288 288 289 290 291 291 292 293 294 295 297 297 298 298 299 300 301 301 302 302 303 304 305
219 222 225 228 231 233 234 235 235 237 239 242 244 246 249 252 255 257 259 259 260 260 261 261 262 262 263 264 265 266 267 267 268 269 269 270 270 270 271 271 272 273 274 275 275 276 277 277 278 278 279 280 280 281 282 282 283 283 284 284 285 286 287 288 288 289 290 291 291 292 293 294 295 296 297 298 298 299 299 300 301 301 302 303 304 305 306
221 224 227 229 232 233 234 235 237 240 242 245 247 249 252 254 255 257 258 259 260 260 261 262 263 264 265 266 267 267 268 269 269 270 270 271 271 272 272 273 273 274 275 276 276 277 278 278 278 279 279 279 280 280 280 280 280 280 281 282 282 282 283 284 285 286 287 287 287 288 289 290 292 293 294 294 295 296 297 298 299 299 300 301 302 302 303
223 225 228 230 232 234 236 238 241 243 246 248 249 251 252 254 255 257 258 259 260 262 263 264 266 267 267 268 268 269 269 270 270 271 271 272 272 273 273 274 274 275 275 276 276 277 277 277 278 278 278 278 278 279 279 280 281 281 281 281 281 281 281 281 282 282 283 284 284 285 286 286 288 289 290 290 291 292 293 295 296 296 297 298 299 299 301
226 228 230 233 235 237 240 242 243 245 246 248 250 251 253 255 257 259 260 262 263 265 266 267 268 269 270 270 271 271 271 271 271 272 272 272 273 273 274 274 274 274 274 274 274 275 275 275 276 276 277 278 278 279 280 281 281 281 281 281 280 280 281 281 282 282 283 283 284 284 285 285 286 286 287 287 288 290 291 292 293 294 294 295 296 297 300
228 230 232 234 237 239 241 243 244 246 248 249 251 253 255 257 259 261 262 264 265 267 268 268 269 270 270 271 271 271 271 271 272 272 272 272 273 273 274 274 274 274 274 274 274 275 275 276 276 277 278 278 279 279 279 279 280 280 281 281 281 281 281 282 282 283 283 283 283 283 284 284 284 285 285 286 287 288 289 290 290 290 291 293 295 297 300
231 233 234 237 239 241 243 245 246 247 249 251 252 254 256 258 260 261 263 264 265 266 266 267 267 268 268 269 270 270 271 272 272 273 273 273 274 274 275 275 275 276 276 276 277 277 277 278 278 279 279 279 279 279 280 280 280 280 281 281 282 282 282 282 282 282 282 282 282 282 282 282 282 283 284 285 285 286 286 287 287 289 291 293 295 297 298
236 237 239 242 244 245 247 247 248 249 251 253 255 257 258 259 260 262 263 263 264 265 265 265 266 267 268 269 270 271 272 273 273 274 275 275 276 276 277 277 277 277 278 278 278 278 279 279 280 280 281 281 281 281 281 282 282 282 282 282 282 282 281 281 280 280 279 279 279 279 279 279 280 281 281 282 282 283 284 285 287 289 292 293 294 295 296
238 241 244 246 247 248 248 249 250 251 253 255 257 258 260 261 262 263 264 264 265 265 266 266 267 268 269 270 271 272 273 274 274 275 276 276 277 277 278 278 278 278 278 279 279 280 280 281 281 282 282 282 283 283 283 283 283 283 283 283 282 282 281 280 279 279 278 277 277 278 278 279 279 280 280 281 282 283 285 286 288 289 291 292 293 294 295
240 243 246 247 248 249 250 251 252 254 256 257 259 260 262 263 264 265 265 266 266 266 267 268 269 269 270 271 272 273 273 274 275 275 276 277 277 278 278 278 279 279 280 281 281 281 282 282 283 283 283 284 284 284 284 284 283 283 283 282 282 281 281 280 280 279 278 278 277 278 278 279 279 280 281 281 282 283 284 285 287 288 289 291 292 293 295
242 244 245 246 247 249 250 252 253 255 257 258 260 261 263 264 264 265 265 266 267 267 268 269 270 270 271 272 273 274 275 275 276 277 277 278 278 279 279 280 281 282 283 283 284 285 285 285 285 285 285 285 285 285 284 284 284 283 283 283 282 282 282 282 281 281 280 279 278 277 277 278 278 279 280 280 282 283 284 285 287 288 289 291 292 292 293
242 243 244 245 246 248 250 251 253 255 256 258 260 261 263 264 264 265 265 266 267 268 269 270 271 272 273 274 275 275 276 277 278 278 278 279 280 280 281 282 283 284 286 287 287 288 288 288 288 287 287 286 286 285 285 285 284 284 283 283 282 282 282 281 281 281 280 279 277 277 276 277 278 279 280 281 283 284 285 286 288 289 290 291 292 293 293
242 243 244 246 247 249 251 252 253 255 257 258 260 262 263 264 265 266 266 267 268 269 271 272 273 274 274 275 276 277 277 278 279 279 280 281 282 283 284 285 287 288 288 289 289 289 289 289 288 288 287 287 287 286 286 285 285 284 283 283 282 281 280 280 280 280 280 279 279 279 280 280 281 282 283 284 285 285 287 288 289 290 291 292 293 293 294
244 245 246 248 249 251 252 253 254 256 257 259 260 262 263 265 266 267 268 269 271 272 273 273 274 275 275 276 277 278 279 280 281 281 282 284 285 286 288 289 290 290 290 290 290 290 289 289 288 288 287 287 286 286 286 286 286 286 286 285 285 284 283 283 283 283 283 283 283 284 284 284 285 285 286 286 287 288 289 289 290 291 291 292 293 294 295
245 247 248 249 250 251 252 254 255 257 258 259 261 262 264 265 267 268 269 271 272 273 274 274 275 276 277 278 279 280 281 282 283 285 286 287 289 290 291 291 291 291 291 291 291 291 290 289 288 288 287 286 286 286 285 285 286 286 286 286 286 286 286 286 286 286 286 287 287 287 287 287 287 288 289 290 290 291 291 291 291 291 292 293 294 295 297
247 248 249 250 251 252 253 254 256 257 259 260 262 263 265 266 267 268 269 271 272 273 274 275 276 277 279 280 281 282 283 285 286 288 289 290 291 291 292 292 292 292 292 292 291 290 290 289 289 288 287 286 286 286 285 285 285 285 285 285 285 286 286 286 287 287 287 287 287 288 288 288 289 290 291 291 292 292 292 293 293 293 294 295 295 296 296
249 250 251 252 253 254 255 256 257 259 260 261 263 264 265 266 267 269 270 272 273 274 276 277 278 280 281 282 283 285 286 287 288 289 290 291 292 292 292 292 292 292 291 291 290 289 289 288 287 287 286 286 285 284 284 283 283 283 283 284 284 285 285 286 286 287 287 288 288 288 289 289 290 290 291 291 291 292 292 293 293 294 294 294 294 294 294
252 253 254 255 256 257 258 259 260 261 262 263 264 265 266 268 269 271 273 274 275 277 278 279 280 282 283 284 285 286 288 289 290 290 291 291 292 292 292 292 291 291 290 290 289 289 288 287 287 286 286 285 285 284 284 284 284 284 284 285 285 286 286 287 287 288 288 288 289 289 288 288 288 288 288 288 289 289 290 291 292 292 293 293 293 294 294
Height
10808 10813 10817 10818 10819 10824 10828 10832 10836 10839 10841 10843 10845 10850 10859 10864 10868 10877 10882 10881 10884 10890 10890 10890 10892 10892 10893 10895 10895 10896 10898 10899 10898 10897 10896 10896 10896 10896 10894 10892 10890 10888 10887 10886 10885 10885 10887 10888 10888 10887 10886 10886 10885 10884 10885 10885 10886 10885 10884 10882 10880 10879 10878 10877 10877 10875 10870 10866 10865 10863 10860 10857 10853 10850 10847 10845 10843 10840 10836 10833 10830 10825 10822 10820 10818 10814 10812
10799 10803 10806 10809 10810 10814 10819 10824 10827 10830 10833 10836 10839 10844 10850 10855 10862 10870 10873 10873 10878 10883 10884 10886 10888 10888 10889 10890 10891 10893 10894 10893 10892 10890 10890 10891 10891 10890 10889 10886 10884 10881 10880 10879 10878 10880 10882 10883 10883 10882 10882 10880 10879 10879 10879 10879 10879 10879 10878 10876 10874 10871 10870 10870 10870 10868 10866 10865 10862 10858 10854 10850 10847 10844 10842 10840 10837 10835 10832 10828 10825 10821 10816 10814 10813 10810 10806
10789 10793 10797 10800 10802 10806 10812 10817 10820 10823 10826 10829 10832 10838 10843 10849 10856 10863 10865 10867 10874 10879 10880 10882 10882 10883 10885 10886 10887 10888 10888 10887 10886 10884 10884 10885 10886 10885 10882 10879 10877 10875 10874 10873 10872 10873 10876 10877 10878 10878 10877 10876 10874 10873 10874 10873 10873 10872 10871 10869 10867 10865 10864 10863 10862 10862 10863 10863 10860 10855 10851 10848 10843 10838 10836 10834 10831 10830 10827 10822 10819 10816 10811 10808 10807 10804 10800
10781 10787 10789 10793 10796 10797 10800 10807 10812 10815 10819 10823 10828 10833 10837 10842 10849 10854 10858 10863 10872 10875 10874 10875 10875 10877 10879 10880 10881 10882 10882 10881 10879 10878 10879 10881 10880 10878 10874 10872 10870 10869 10868 10868 10867 10868 10869 10871 10872 10873 10872 10871 10869 10869 10868 10868 10867 10866 10864 10862 10860 10859 10858 10857 10856 10857 10858 10860 10859 10855 10852 10848 10841 10834 10831 10828 10825 10823 10820 10815 10812 10810 10807 10804 10801 10797 10794
10776 10781 10781 10785 10785 10782 10787 10799 10807 10810 10814 10818 10822 10825 10830 10835 10840 10846 10853 10861 10868 10868 10866 10868 10870 10871 10872 10873 10874 10874 10874 10873 10873 10873 10874 10874 10873 10870 10867 10865 10864 10862 10862 10862 10862 10862 10863 10864 10866 10867 10866 10865 10864 10863 10862 10861 10860 10858 10857 10855 10854 10852 10852 10852 10852 10852 10853 10855 10855 10852 10847 10842 10834 10828 10826 10822 10819 10816 10812 10808 10806 10803 10801 10798 10795 10791 10787
10768 10770 10769 10771 10769 10769 10782 10798 10803 10804 10807 10810 10813 10816 10822 10828 10833 10840 10848 10855 10859 10859 10860 10862 10863 10863 10865 10865 10866 10866 10866 10866 10866 10866 10867 10867 10865 10863 10861 10859 10858 10857 10856 10856 10856 10856 10857 10857 10859 10860 10860 10859 10858 10857 10856 10854 10853 10851 10850 10849 10847 10846 10846 10846 10846 10846 10847 10849 10850 10845 10838 10832 10826 10821 10819 10817 10815 10811 10804 10800 10799 10796 10793 10791 10787 10783 10781
10757 10757 10756 10758 10758 10766 10782 10792 10793 10794 10797 10800 10803 10808 10814 10820 10826 10833 10841 10846 10850 10852 10854 10855 10856 10856 10857 10858 10858 10858 10858 10858 10859 10859 10859 10858 10856 10855 10854 10854 10853 10852 10852 10850 10850 10850 10849 10849 10851 10852 10853 10853 10852 10851 10850 10848 10846 10845 10843 10842 10840 10839 10839 10840 10839 10839 10841 10844 10843 10836 10828 10823 10817 10813 10811 10810 10808 10804 10799 10795 10792 10790 10786 10783 10779 10775 10773
10744 10746 10748 10749 10753 10764 10775 10781 10781 10783 10787 10791 10795 10800 10807 10814 10820 10826 10832 10837 10841 10844 10846 10848 10849 10848 10849 10850 10850 10849 10849 10850 10851 10850 10850 10849 10848 10848 10848 10848 10848 10847 10846 10845 10843 10842 10841 10841 10843 10844 10845 10845 10845 10844 10843 10842 10840 10838 10836 10835 10834 10833 10831 10831 10831 10832 10835 10837 10833 10826 10819 10814 10809 10805 10802 10800 10798 10795 10792 10789 10786 10783 10779 10774 10770 10767 10765
10733 10737 10740 10741 10746 10755 10763 10768 10770 10774 10779 10784 10787 10793 10800 10807 10812 10817 10823 10828 10833 10836 10838 10840 10840 10840 10841 10843 10841 10840 10840 10841 10841 10842 10842 10841 10840 10840 10840 10841 10841 10841 10840 10839 10837 10836 10835 10834 10834 10835 10836 10837 10837 10836 10836 10834 10833 10831 10829 10828 10827 10825 10823 10823 10823 10824 10827 10828 10822 10815 10810 10806 10802 10799 10796 10792 10789 10787 10785 10782 10779 10776 10770 10766 10762 10759 10757
10724 10728 10731 10733 10737 10746 10754 10757 10762 10769 10773 10775 10780 10788 10794 10800 10805 10810 10816 10820 10824 10827 10829 10830 10831 10831 10832 10832 10831 10830 10831 10832 10833 10834 10833 10832 10832 10832 10832 10833 10834 10834 10834 10832 10831 10829 10828 10827 10827 10827 10828 10829 10829 10828 10828 10827 10826 10824 10823 10821 10818 10816 10814 10815 10815 10815 10817 10817 10812 10806 10803 10799 10795 10791 10788 10785 10783 10781 10778 10775 10772 10767 10762 10758 10755 10751 10749
10714 10719 10724 10727 10731 10738 10744 10747 10753 10761 10763 10767 10776 10783 10785 10790 10798 10804 10807 10811 10814 10817 10818 10819 10820 10821 10822 10822 10821 10822 10823 10824 10824 10825 10824 10824 10823 10824 10825 10827 10828 10827 10826 10824 10824 10822 10821 10821 10820 10820 10821 10822 10822 10821 10821 10820 10819 10817 10816 10813 10810 10809 10807 10806 10806 10806 10806 10806 10803 10799 10796 10792 10788 10784 10780 10778 10776 10773 10769 10766 10762 10758 10753 10749 10746 10743 10740
10704 10710 10716 10720 10724 10729 10734 10738 10744 10751 10755 10760 10769 10774 10777 10784 10793 10796 10798 10801 10804 10807 10808 10809 10811 10812 10812 10813 10814 10814 10814 10814 10815 10816 10816 10816 10817 10818 10820 10821 10820 10818 10817 10817 10816 10815 10815 10814 10813 10814 10815 10815 10814 10814 10813 10813 10812 10810 10808 10805 10802 10802 10800 10797 10796 10796 10796 10795 10794 10791 10788 10784 10781 10777 10773 10770 10767 10764 10760 10757 10752 10748 10744 10741 10737 10734 10732
10695 10702 10709 10714 10716 10721 10725 10729 10735 10742 10748 10755 10763 10767 10772 10779 10784 10787 10789 10792 10795 10797 10797 10799 10801 10801 10802 10804 10805 10804 10804 10804 10806 10808 10809 10810 10811 10812 10814 10813 10811 10810 10809 10809 10808 10808 10807 10807 10807 10809 10809 10807 10806 10806 10805 10804 10803 10801 10799 10796 10794 10793 10791 10788 10787 10787 10786 10784 10783 10781 10779 10776 10773 10770 10766 10762 10758 10755 10751 10747 10743 10739 10736 10732 10729 10726 10723
10689 10695 10701 10706 10708 10712 10717 10721 10727 10736 10744 10751 10758 10762 10764 10768 10773 10777 10779 10782 10785 10786 10787 10789 10790 10791 10793 10796 10795 10793 10794 10796 10798 10800 10801 10803 10805 10805 10805 10805 10804 10803 10802 10800 10799 10799 10799 10800 10801 10802 10801 10799 10798 10798 10796 10795 10794 10792 10790 10787 10786 10784 10782 10781 10779 10777 10776 10774 10772 10770 10768 10767 10765 10762 10758 10754 10750 10746 10742 10738 10734 10732 10728 10725 10721 10717 10713
10683 10687 10692 10698 10701 10704 10710 10715 10723 10732 10739 10745 10751 10754 10755 10757 10761 10766 10770 10772 10775 10777 10777 10779 10780 10781 10784 10785 10784 10784 10786 10787 10789 10791 10794 10796 10797 10797 10797 10796 10795 10795 10794 10792 10791 10790 10790 10792 10793 10793 10792 10791 10789 10788 10787 10786 10785 10783 10780 10778 10776 10775 10774 10772 10770 10768 10766 10764 10761 10759 10757 10756 10755 10752 10749 10745 10740 10736 10732 10729 10726 10724 10721 10717 10713 10709 10704
10677 10680 10684 10689 10694 10697 10702 10709 10717 10725 10732 10738 10742 10744 10744 10746 10750 10756 10761 10763 10765 10767 10769 10769 10770 10771 10772 10773 10775 10777 10778 10778 10779 10781 10784 10786 10787 10788 10788 10787 10787 10786 10785 10784 10782 10780 10780 10781 10782 10783 10783 10781 10779 10778 10778 10776 10775 10773 10771 10769 10768 10767 10765 10763 10761 10760 10757 10754 10751 10749 10747 10745 10743 10741 10738 10734 10730 10726 10723 10721 10718 10716 10712 10709 10704 10700 10696
10671 10674 10678 10682 10687 10691 10695 10702 10710 10718 10724 10729 10732 10734 10736 10738 10742 10747 10752 10755 10757 10759 10760 10760 10760 10761 10763 10765 10768 10769 10769 10770 10771 10772 10774 10775 10777 10778 10778 10777 10776 10775 10774 10773 10772 10770 10769 10770 10772 10772 10772 10770 10769 10769 10768 10767 10765 10763 10761 10759 10759 10758 10756 10754 10752 10749 10747 10744 10741 10738 10735 10733 10732 10730 10728 10725 10722 10719 10716 10713 10710 10707 10704 10700 10697 10693 10689
10663 10666 10670 10676 10681 10685 10690 10697 10704 10709 10715 10719 10721 10724 10728 10732 10734 10738 10743 10746 10749 10750 10751 10751 10752 10754 10757 10760 10761 10760 10760 10762 10763 10764 10766 10767 10767 10768 10767 10766 10765 10764 10764 10763 10761 10760 10760 10761 10761 10762 10761 10760 10759 10759 10759 10758 10756 10754 10752 10750 10749 10747 10746 10743 10740 10737 10735 10733 10730 10727 10725 10723 10722 10721 10719 10715 10712 10710 10708 10705 10702 10699 10696 10692 10689 10686 10683
10655 10659 10664 10669 10675 10680 10687 10693 10697 10700 10704 10708 10711 10715 10720 10724 10727 10731 10734 10736 10739 10741 10742 10743 10745 10749 10752 10752 10751 10751 10752 10753 10755 10756 10758 10758 10758 10758 10757 10756 10755 10754 10753 10752 10751 10750 10750 10751 10751 10751 10750 10750 10749 10749 10749 10748 10746 10744 10741 10738 10737 10735 10733 10731 10728 10725 10723 10722 10720 10717 10716 10714 10713 10711 10709 10706 10703 10700 10697 10695 10692 10690 10688 10685 10682 10679 10675
10650 10654 10658 10662 10668 10673 10679 10685 10690 10693 10696 10699 10702 10706 10711 10715 10720 10723 10725 10727 10730 10732 10734 10735 10738 10742 10743 10740 10739 10740 10742 10743 10746 10748 10749 10749 10748 10747 10747 10746 10745 10744 10743 10742 10741 10740 10740 10741 10741 10740 10739 10738 10737 10737 10737 10736 10733 10730 10728 10725 10723 10723 10722 10721 10719 10716 10715 10713 10711 10709 10707 10704 10702 10701 10699 10696 10693 10690 10687 10685 10683 10681 10678 10676 10672 10669 10665
10645 10651 10655 10658 10662 10666 10671 10678 10684 10687 10689 10691 10694 10698 10702 10707 10712 10715 10717 10719 10721 10724 10726 10727 10730 10732 10733 10730 10729 10731 10734 10735 10738 10740 10740 10740 10739 10738 10738 10737 10736 10735 10733 10732 10732 10731 10731 10730 10731 10730 10729 10727 10726 10726 10725 10724 10721 10719 10718 10716 10715 10714 10713 10713 10711 10708 10707 10705 10703 10701 10698 10694 10692 10691 10688 10686 10683 10680 10678 10676 10673 10670 10667 10664 10660 10657 10653
10642 10646 10650 10654 10656 10659 10663 10670 10677 10681 10682 10684 10687 10691 10695 10699 10703 10707 10709 10711 10713 10715 10717 10718 10719 10721 10723 10722 10722 10723 10726 10727 10729 10730 10731 10731 10730 10729 10730 10730 10729 10728 10726 10725 10724 10723 10722 10721 10721 10720 10719 10717 10716 10716 10715 10714 10712 10711 10710 10709 10707 10706 10705 10704 10703 10700 10698 10696 10695 10692 10689 10685 10683 10680 10677 10674 10671 10669 10667 10665 10663 10660 10657 10653 10650 10646 10643
10634 10637 10642 10647 10651 10653 10657 10663 10670 10675 10675 10677 10680 10683 10687 10690 10694 10697 10700 10702 10703 10705 10707 10708 10710 10711 10712 10713 10714 10715 10717 10718 10719 10720 10721 10721 10721 10720 10721 10721 10720 10719 10718 10716 10714 10713 10713 10713 10712 10711 10710 10709 10708 10707 10707 10706 10705 10703 10702 10700 10700 10700 10698 10695 10694 10692 10689 10688 10686 10682 10678 10674 10672 10669 10666 10662 10659 10657 10655 10653 10651 10649 10646 10642 10639 10636 10632
10629 10633 10640 10644 10647 10650 10653 10657 10663 10666 10668 10670 10674 10677 10679 10682 10685 10688 10690 10692 10694 10696 10698 10700 10701 10702 10703 10704 10706 10707 10708 10709 10710 10710 10710 10711 10712 10712 10711 10711 10711 10710 10708 10706 10705 10704 10704 10704 10703 10703 10702 10701 10701 10700 10699 10698 10696 10695 10693 10691 10691 10692 10690 10687 10684 10682 10680 10678 10676 10672 10667 10663 10661 10658 10655 10652 10649 10647 10645 10643 10640 10638 10635 10631 10627 10624 10620
10633 10637 10641 10642 10643 10646 10649 10653 10657 10660 10663 10666 10670 10672 10672 10674 10676 10679 10681 10683 10685 10688 10690 10691 10692 10693 10694 10695 10696 10698 10699 10700 10700 10701 10701 10702 10703 10703 10703 10702 10701 10700 10698 10697 10695 10695 10696 10696 10695 10694 10693 10692 10692 10692 10690 10689 10686 10684 10683 10681 10680 10680 10678 10676 10674 10672 10669 10668 10666 10662 10658 10654 10651 10648 10645 10642 10640 10637 10635 10632 10629 10626 10623 10619 10616 10613 10610
10634 10637 10638 10638 10639 10642 10644 10648 10652 10657 10661 10663 10663 10663 10663 10665 10667 10670 10672 10674 10677 10679 10680 10682 10683 10683 10684 10686 10687 10689 10690 10690 10691 10692 10693 10693 10694 10694 10693 10693 10692 10691 10689 10688 10686 10686 10687 10688 10687 10686 10685 10684 10683 10682 10680 10678 10676 10674 10672 10670 10669 10667 10666 10665 10663 10661 10658 10657 10654 10651 10647 10644 10640 10637 10634 10631 10629 10626 10623 10620 10618 10614 10611 10608 10606 10603 10599
10627 10632 10632 10632 10634 10637 10640 10645 10650 10654 10656 10655 10652 10651 10652 10654 10657 10660 10662 10664 10667 10669 10671 10672 10674 10675 10677 10678 10679 10680 10680 10681 10682 10682 10683 10684 10684 10684 10684 10684 10683 10682 10681 10679 10678 10677 10678 10679 10678 10677 10675 10674 10673 10672 10670 10668 10666 10664 10662 10660 10658 10655 10654 10652 10650 10648 10646 10644 10641 10638 10635 10631 10627 10624 10621 10619 10616 10613 10611 10609 10606 10604 10601 10598 10595 10592 10589
10617 10623 10624 10624 10627 10631 10634 10638 10641 10644 10644 10642 10641 10641 10644 10646 10648 10651 10653 10656 10658 10661 10663 10665 10666 10667 10668 10669 10670 10671 10671 10671 10672 10672 10673 10673 10674 10675 10675 10674 10674 10673 10672 10670 10669 10668 10668 10668 10667 10666 10665 10663 10662 10662 10661 10658 10656 10655 10653 10650 10647 10645 10642 10640 10638 10636 10633 10631 10629 10626 10623 10619 10615 10612 10610 10607 10604 10602 10601 10599 10597 10594 10591 10588 10585 10582 10578
10608 10610 10612 10614 10617 10620 10623 10626 10629 10632 10633 10633 10634 10636 10638 10640 10641 10643 10646 10649 10652 10654 10656 10657 10658 10659 10660 10661 10661 10662 10662 10662 10662 10662 10663 10663 10664 10665 10665 10664 10663 10662 10661 10660 10659 10657 10656 10656 10655 10654 10653 10652 10651 10651 10651 10648 10646 10645 10643 10640 10638 10635 10633 10630 10628 10626 10623 10620 10618 10615 10612 10609 10606 10603 10600 10597 10594 10591 10590 10588 10586 10583 10580 10578 10575 10572 10568
10597 10599 10601 10604 10606 10608 10612 10615 10619 10622 10624 10626 10627 10629 10631 10633 10635 10637 10640 10643 10646 10647 10649 10650 10651 10652 10652 10653 10653 10653 10653 10653 10653 10653 10653 10654 10655 10655 10654 10654 10653 10652 10651 10650 10649 10647 10646 10645 10644 10643 10643 10642 10641 10642 10641 10639 10636 10634 10633 10630 10627 10624 10622 10620 10618 10616 10613 10610 10606 10603 10601 10598 10595 10592 10589 10586 10583 10580 10578 10577 10574 10572 10570 10567 10564 10561 10557
10583 10587 10590 10593 10595 10598 10603 10606 10610 10613 10616 10617 10619 10621 10623 10626 10628 10631 10634 10636 10638 10640 10641 10642 10643 10644 10644 10644 10645 10645 10645 10645 10645 10645 10645 10645 10646 10646 10645 10644 10644 10643 10642 10641 10640 10638 10637 10635 10634 10634 10633 10633 10632 10632 10631 10628 10625 10623 10621 10619 10616 10612 10610 10608 10606 10603 10600 10597 10593 10590 10587 10585 10582 10580 10578 10575 10572 10570 10568 10566 10564 10561 10559 10556 10554 10550 10546
10575 10579 10581 10583 10586 10592 10597 10601 10604 10607 10610 10611 10612 10614 10616 10619 10622 10625 10627 10629 10631 10632 10633 10634 10635 10635 10636 10636 10637 10637 10638 10638 10638 10638 10637 10637 10636 10636 10636 10635 10635 10634 10633 10632 10630 10629 10628 10626 10624 10624 10624 10623 10623 10623 10620 10617 10614 10613 10611 10608 10605 10601 10598 10596 10594 10591 10587 10583 10579 10576 10574 10571 10569 10567 10565 10564 10563 10561 10559 10557 10554 10552 10549 10546 10544 10540 10536
10570 10574 10577 10579 10583 10588 10593 10597 10600 10602 10604 10605 10607 10609 10611 10614 10616 10618 10620 10622 10623 10624 10625 10626 10626 10627 10627 10628 10629 10630 10630 10630 10630 10629 10629 10628 10627 10627 10626 10626 10625 10625 10624 10623 10621 10620 10619 10617 10615 10615 10615 10613 10612 10612 10609 10606 10604 10601 10599 10597 10594 10589 10586 10583 10581 10578 10575 10571 10568 10565 10561 10559 10557 10556 10555 10554 10553 10552 10550 10547 10544 10541 10538 10536 10533 10529 10525
10565 10569 10573 10576 10580 10584 10589 10593 10595 10597 10599 10600 10602 10604 10606 10608 10610 10612 10613 10615 10616 10616 10617 10617 10617 10618 10618 10619 10620 10621 10621 10621 10621 10621 10620 10619 10618 10618 10617 10617 10616 10614 10613 10612 10611 10610 10609 10608 10607 10605 10604 10603 10601 10599 10597 10595 10593 10590 10587 10585 10581 10577 10573 10570 10567 10564 10562 10560 10557 10553 10549 10547 10546 10546 10544 10543 10542 10540 10537 10535 10532 10529 10526 10523 10520 10517 10513
10563 10567 10571 10574 10577 10580 10584 10588 10590 10592 10594 10596 10598 10599 10601 10603 10604 10605 10606 10607 10608 10608 10608 10609 10609 10609 10610 10610 10611 10612 10612 10612 10612 10611 10610 10610 10609 10609 10609 10607 10606 10605 10603 10602 10601 10600 10600 10600 10598 10595 10593 10592 10590 10588 10585 10583 10581 10579 10576 10573 10568 10563 10559 10556 10553 10551 10550 10549 10545 10540 10536 10534 10534 10534 10532 10529 10526 10523 10521 10519 10517 10515 10512 10509 10506 10502 10499
10561 10565 10568 10571 10573 10576 10579 10583 10585 10588 10590 10592 10594 10595 10596 10597 10598 10598 10599 10600 10600 10600 10600 10600 10600 10601 10601 10601 10602 10602 10602 10602 10601 10600 10600 10599 10599 10599 10599 10598 10597 10595 10593 10591 10589 10589 10589 10588 10587 10585 10582 10580 10579 10577 10574 10571 10570 10568 10567 10563 10558 10553 10549 10545 10540 10539 10540 10539 10536 10531 10526 10522 10521 10520 10518 10515 10512 10509 10507 10505 10504 10502 10499 10496 10493 10490 10488
10557 10560 10563 10566 10569 10572 10575 10578 10580 10582 10585 10587 10588 10590 10590 10591 10591 10591 10591 10591 10591 10591 10591 10591 10591 10592 10592 10592 10592 10592 10592 10591 10590 10590 10589 10589 10588 10588 10588 10587 10586 10585 10584 10582 10580 10578 10577 10576 10575 10573 10571 10569 10567 10564 10562 10560 10559 10559 10559 10556 10551 10547 10545 10541 10535 10532 10531 10530 10527 10524 10520 10515 10512 10511 10509 10506 10502 10499 10497 10495 10494 10492 10489 10486 10484 10481 10478
10552 10555 10558 10562 10565 10567 10570 10572 10574 10576 10578 10580 10582 10583 10583 10583 10583 10583 10583 10583 10583 10583 10583 10583 10583 10583 10583 10583 10583 10583 10582 10581 10581 10580 10579 10579 10579 10578 10578 10578 10577 10576 10575 10573 10571 10569 10567 10565 10563 10562 10560 10559 10556 10554 10552 10550 10548 10548 10549 10549 10544 10539 10535 10533 10529 10526 10523 10520 10517 10515 10512 10508 10505 10503 10500 10497 10494 10491 10488 10486 10484 10482 10480 10477 10474 10471 10469
10548 10552 10555 10557 10560 10562 10564 10566 10568 10570 10571 10573 10574 10575 10575 10575 10575 10576 10576 10575 10575 10575 10575 10576 10575 10575 10574 10573 10573 10573 10573 10572 10571 10571 10570 10569 10569 10569 10569 10568 10567 10566 10565 10564 10562 10559 10557 10555 10553 10552 10551 10549 10546 10544 10543 10541 10538 10535 10535 10536 10533 10528 10524 10521 10518 10514 10511 10509 10507 10504 10501 10497 10494 10492 10489 10487 10484 10482 10479 10477 10475 10473 10471 10468 10465 10462 10460
10544 10547 10550 10552 10554 10556 10558 10560 10561 10563 10564 10566 10567 10567 10568 10568 10568 10568 10569 10568 10568 10568 10568 10568 10568 10567 10565 10565 10564 10564 10563 10563 10562 10561 10561 10560 10560 10560 10560 10559 10557 10556 10555 10553 10552 10550 10547 10545 10543 10542 10542 10540 10537 10533 10532 10531 10527 10523 10521 10520 10518 10515 10512 10508 10505 10501 10498 10496 10493 10491 10488 10484 10482 10480 10478 10476 10473 10472 10470 10468 10465 10463 10461 10459 10457 10454 10452
10539 10542 10544 10546 10548 10550 10552 10553 10555 10556 10557 10558 10559 10560 10561 10561 10562 10562 10562 10562 10562 10561 10561 10561 10560 10559 10558 10557 10556 10556 10555 10554 10553 10552 10552 10551 10551 10551 10550 10549 10547 10545 10544 10543 10541 10539 10537 10534 10532 10531 10529 10528 10525 10522 10519 10517 10514 10511 10508 10505 10503 10500 10497 10494 10491 10488 10485 10482 10479 10477 10475 10472 10470 10468 10467 10465 10464 10462 10460 10458 10456 10453 10452 10451 10449 10446 10444
10533 10536 10538 10540 10542 10543 10545 10547 10549 10550 10551 10551 10552 10553 10553 10554 10554 10555 10555 10555 10554 10554 10553 10553 10552 10552 10551 10550 10549 10548 10547 10546 10545 10544 10543 10542 10541 10540 10539 10538 10536 10535 10533 10532 10530 10528 10525 10523 10520 10518 10515 10513 10510 10508 10505 10502 10499 10496 10493 10490 10488 10485 10483 10480 10478 10475 10472 10469 10467 10465 10463 10461 10460 10459 10457 10456 10454 10452 10451 10449 10447 10445 10444 10442 10440 10437 10435
10528 10530 10532 10533 10535 10537 10539 10541 10542 10543 10544 10544 10545 10545 10545 10546 10546 10546 10546 10546 10546 10545 10545 10544 10544 10544 10543 10542 10542 10540 10539 10537 10536 10534 10533 10533 10532 10530 10528 10527 10525 10523 10521 10520 10519 10517 10514 10511 10508 10505 10502 10499 10496 10493 10490 10487 10484 10481 10478 10476 10473 10471 10468 10466 10464 10462 10460 10458 10456 10454 10452 10451 10450 10449 10448 10447 10445 10444 10443 10441 10439 10437 10435 10433 10431 10429 10427
10522 10524 10526 10527 10529 10531 10532 10534 10535 10536 10536 10536 10536 10537 10537 10537 10536 10536 10536 10537 10537 10537 10536 10536 10535 10535 10534 10534 10532 10531 10530 10528 10527 10525 10524 10523 10521 10520 10518 10516 10514 10512 10510 10508 10506 10504 10502 10498 10495 10492 10489 10485 10482 10479 10476 10473 10470 10468 10465 10463 10461 10458 10456 10454 10452 10450 10448 10447 10445 10443 10442 10441 10440 10439 10438 10437 10436 10435 10434 10433 10431 10429 10427 10425 10422 10420 10418
10517 10518 10520 10522 10523 10524 10525 10526 10527 10527 10527 10527 10527 10528 10528 10528 10528 10527 10527 10527 10528 10528 10527 10527 10526 10525 10525 10524 10523 10521 10520 10518 10517 10515 10514 10512 10510 10508 10506 10504 10502 10500 10498 10495 10493 10490 10487 10484 10481 10478 10475 10472 10469 10465 10462 10460 10457 10455 10453 10451 10449 10447 10445 10443 10441 10440 10438 10437 10435 10434 10432 10431 10430 10430 10429 10429 10428 10426 10425 10423 10422 10420 10418 10416 10414 10412 10410
10510 10512 10514 10515 10516 10517 10518 10519 10519 10519 10519 10519 10519 10520 10520 10520 10519 10518 10518 10518 10518 10518 10518 10517 10516 10515 10515 10514 10513 10511 10509 10507 10505 10504 10502 10501 10499 10497 10495 10493 10491 10488 10485 10482 10479 10476 10473 10470 10466 10464 10461 10458 10456 10453 10450 10447 10445 10443 10442 10440 10439 10437 10435 10434 10432 10431 10430 10428 10427 10425 10424 10423 10422 10421 10420 10420 10419 10418 10416 10415 10413 10411 10409 10407 10405 10403 10402
10504 10505 10507 10508 10509 10510 10511 10512 10512 10512 10511 10511 10511 10511 10511 10511 10510 10509 10509 10509 10509 10509 10508 10508 10506 10505 10504 10503 10502 10500 10498 10496 10494 10492 10491 10489 10488 10486 10484 10481 10479 10476 10472 10469 10466 10463 10460 10457 10454 10451 10448 10446 10444 10441 10439 10437 10435 10434 10433 10431 10430 10428 10427 10426 10424 10423 10422 10421 10420 10418 10416 10415 10413 10413 10412 10411 10410 10409 10408 10406 10404 10402 10401 10398 10396 10394 10393
10497 10499 10500 10501 10502 10503 10504 10504 10504 10503 10503 10503 10503 10503 10503 10502 10501 10500 10499 10499 10499 10499 10498 10497 10496 10495 10493 10492 10491 10489 10487 10485 10483 10481 10479 10478 10476 10473 10471 10468 10465 10462 10459 10456 10453 10450 10448 10445 10443 10440 10438 10435 10433 10431 10429 10427 10426 10425 10424 10423 10421 10420 10419 10417 10416 10415 10414 10413 10412 10411 10409 10407 10405 10404 10403 10402 10401 10401 10400 10398 10397 10395 10393 10391 10389 10387 10385
10490 10491 10492 10494 10494 10495 10496 10496 10495 10494 10494 10495 10495 10495 10495 10494 10492 10491 10490 10490 10490 10489 10488 10486 10485 10484 10482 10481 10479 10478 10476 10473 10471 10469 10467 10466 10464 10461 10458 10455 10452 10449 10447 10444 10441 10438 10436 10434 10432 10430 10428 10426 10424 10422 10421 10419 10418 10416 10415 10414 10413 10412 10410 10409 10408 10407 10406 10405 10404 10403 10402 10400 10398 10397 10395 10394 10393 10392 10391 10390 10389 10387 10386 10384 10382 10380 10377
10482 10484 10485 10485 10486 10487 10487 10487 10486 10485 10486 10487 10487 10487 10487 10485 10483 10482 10481 10481 10480 10479 10477 10476 10474 10473 10471 10470 10468 10466 10464 10462 10460 10457 10455 10453 10451 10448 10445 10442 10440 10437 10435 10432 10430 10428 10426 10424 10422 10420 10419 10417 10415 10414 10412 10411 10409 10408 10407 10406 10405 10404 10403 10402 10401 10400 10399 10398 10397 10396 10395 10393 10391 10390 10389 10387 10385 10384 10382 10381 10380 10379 10377 10376 10375 10373 10372
10475 10476 10477 10477 10477 10478 10478 10478 10477 10477 10478 10479 10479 10478 10477 10475 10473 10473 10472 10472 10471 10469 10467 10466 10465 10463 10461 10459 10456 10454 10452 10450 10448 10446 10443 10441 10438 10436 10433 10431 10429 10426 10424 10422 10421 10419 10417 10416 10414 10412 10411 10409 10408 10406 10405 10404 10402 10401 10400 10399 10398 10397 10396 10395 10395 10394 10393 10391 10390 10389 10388 10386 10385 10383 10382 10380 10379 10377 10375 10373 10372 10371 10370 10369 10368 10367 10366
10467 10468 10468 10468 10468 10468 10468 10468 10468 10469 10470 10470 10469 10468 10466 10465 10465 10464 10463 10462 10460 10459 10457 10455 10454 10453 10450 10448 10445 10443 10440 10438 10436 10434 10432 10430 10427 10425 10423 10421 10419 10417 10415 10414 10412 10410 10409 10407 10406 10404 10403 10402 10400 10399 10397 10396 10395 10394 10393 10392 10392 10391 10390 10389 10388 10387 10386 10384 10383 10382 10381 10379 10378 10377 10376 10374 10373 10372 10370 10367 10365 10363 10362 10362 10361 10360 10359